ROMMA est une association bénévole à but non lucratif. Votre soutien est indispensable : ADHERER à ROMMA ou FAIRE un DON

Lans-en-Vercors - (38, Isère)

Vercors (990 m)   Longitude: 5° 33' 59'' E   Latitude: 45° 6' 3'' N Station partenaire n°80
 

Détail journalier du     <<     >>

Température Humidité Vent Dir Rafale Dir. rafale Ensol.
Heure (°C) (%) (km/h) (km/h) (min)
01:00 -4.8906N18NNE0
02:00 -4.8929N21NNO0
03:00 -4.49010N24NE0
04:00 -4.48810N29N0
05:00 -4.38614NNE32NNE0
06:00 -4.48613N32NNE0
07:00 -4.78715NNE31N0
08:00 -4.78311NNE26NNE0
09:00 -4.78314NNE37N0
10:00 -4.78512NNE31N0
11:00 -4.48410N24N0
12:00 -4.58613N26NNO0
13:00 -4.68614N27NNO0
14:00 -4.48613N29N0
15:00 -4.38511N26NNO0
16:00 -5.38915NNO34N0
17:00 -5.59017N34NNO0
18:00 -5.89017N31NNO0
19:00 -6.19218NNO34N0
20:00 -6.19114N27NNO0
21:00 -6.79317N29N0
22:00 -6.99318N35NNO0
23:00 -7.09316N31NNO0
minuit -7.19213NNO27NNO0

Graphique du 24-01-2019

 

Serveur OMMA